GW5292 Weather Reports


time (UTC)temp
F
wind
direction
speed
knots
gust
knots
rain 1hr
in
rain 24hr
in
rain mn
in
humidity
%
barometer
mb
20260508095959 39 253 0.0 0.0 0.00 0.00 0.00 91 1013.2
20260508094502 39 253 0.0 0.0 0.00 0.00 0.00 91 1013.1
20260508093004 39 253 0.0 0.0 0.00 0.00 0.00 91 1013.1
20260508091504 40 253 0.0 0.0 0.00 0.00 0.00 90 1012.9
20260508085958 40 253 0.0 0.0 0.00 0.00 0.00 89 1012.9
20260508084502 41 253 0.0 1.7 0.00 0.00 0.00 89 1012.9
20260508083002 41 253 0.0 1.7 0.00 0.00 0.00 88 1012.7
20260508081504 42 263 0.0 0.0 0.00 0.00 0.00 88 1012.5
20260508080009 42 263 0.0 0.0 0.00 0.00 0.00 87 1012.5
20260508074502 42 263 0.0 0.0 0.00 0.00 0.00 86 1012.4
20260508073003 43 263 0.0 0.0 0.00 0.00 0.00 84 1012.3
20260508071504 44 263 0.0 0.0 0.00 0.00 0.00 82 1012.2
20260508070024 45 263 0.0 1.7 0.00 0.00 0.00 80 1012.3
20260508064517 47 264 0.0 0.0 0.00 0.00 0.00 77 1012.1
20260508063010 48 264 0.0 0.9 0.00 0.01 0.00 75 1012.0
20260508061517 49 214 0.0 2.6 0.00 0.01 0.00 74 1011.9
20260508060017 50 258 0.0 3.5 0.00 0.01 0.00 72 1012.0
20260508054538 51 360 0.0 2.6 0.00 0.01 0.00 70 1011.6
20260508053008 51 299 0.9 4.3 0.00 0.02 0.00 67 1011.3
20260508051513 52 313 1.7 7.8 0.00 0.04 0.00 66 1011.1
20260508050018 51 11 0.9 1.7 0.00 0.04 0.00 68 1011.1
20260508044522 52 185 0.0 0.0 0.00 0.05 0.00 72 1009.9
20260508043025 52 185 0.0 1.7 0.00 0.05 0.00 66 1009.9
20260508041508 52 185 0.0 1.7 0.00 0.05 0.00 67 1009.9
20260508040035 52 185 0.0 1.7 0.00 0.05 0.00 74 1009.9
20260508034520 52 277 0.0 0.0 0.00 0.05 0.05 75 1009.4
20260508033024 52 277 0.0 1.7 0.00 0.05 0.05 73 1009.3
20260508031531 52 277 0.0 1.7 0.00 0.05 0.05 75 1009.2
20260508030013 53 277 0.0 1.7 0.00 0.05 0.05 73 1009.2
20260508024513 53 277 0.0 1.7 0.00 0.05 0.05 69 1009.2
20260508023008 53 333 0.9 1.7 0.00 0.05 0.05 67 1009.2
20260508021502 52 248 0.0 0.0 0.00 0.05 0.05 73 1009.0
20260508020006 53 248 0.0 0.0 0.00 0.05 0.05 73 1009.0
20260508014514 53 248 0.0 0.0 0.00 0.05 0.05 71 1008.9
20260508013003 53 248 0.0 0.0 0.00 0.05 0.05 68 1008.7
20260508011503 54 248 0.0 0.0 0.00 0.05 0.05 64 1008.7
20260508010005 54 248 0.0 0.0 0.00 0.05 0.05 68 1008.5
20260508004510 55 248 0.0 0.0 0.00 0.05 0.05 66 1008.4
20260508003018 55 248 0.0 0.0 0.00 0.05 0.05 61 1008.3
20260508001505 56 248 0.0 0.0 0.00 0.05 0.05 56 1008.2
20260508000003 57 248 0.0 0.0 0.00 0.05 0.05 53 1008.1
20260507234504 58 248 0.0 1.7 0.00 0.07 0.05 47 1008.0
20260507233014 60 248 0.0 0.0 0.00 0.12 0.05 42 1007.8
20260507231513 60 248 0.0 0.0 0.00 0.21 0.05 44 1007.8
20260507230011 61 248 0.0 1.7 0.00 0.22 0.05 46 1007.8
20260507224507 61 192 0.0 1.7 0.00 0.22 0.05 44 1007.7
20260507223011 62 192 0.0 1.7 0.00 0.22 0.05 42 1007.8
20260507221518 62 326 0.0 2.6 0.00 0.22 0.05 36 1007.8
20260507220029 62 11 1.7 4.3 0.00 0.22 0.05 36 1007.9
20260507214503 63 348 0.0 1.7 0.00 0.22 0.05 39 1007.9
20260507213010 64 13 1.7 4.3 0.00 0.22 0.05 35 1007.9
20260507211511 64 360 0.0 2.6 0.00 0.22 0.05 37 1007.9
20260507210025 65 34 0.0 2.6 0.00 0.22 0.05 36 1007.9
20260507204524 64 161 0.9 4.3 0.00 0.22 0.05 36 1007.9
20260507203003 64 164 0.9 3.5 0.00 0.22 0.05 38 1007.9
20260507201509 65 119 1.7 4.3 0.00 0.22 0.05 39 1007.9
20260507200015 63 360 2.6 6.1 0.00 0.22 0.05 38 1008.0
20260507194530 63 85 0.9 3.5 0.00 0.22 0.05 37 1008.4
20260507193023 64 174 0.9 2.6 0.00 0.22 0.05 38 1008.5
20260507191508 63 9 0.9 5.2 0.00 0.22 0.05 37 1008.7
20260507190013 64 48 0.9 1.7 0.00 0.22 0.05 1008.9
20260507184521 63 159 0.9 4.3 0.00 0.22 0.05 37 1008.9
20260507183023 64 105 0.9 2.6 0.00 0.22 0.05 38 1009.0
20260507181528 64 270 0.9 2.6 0.00 0.22 0.05 39 1009.2
20260507180015 63 110 0.9 3.5 0.00 0.22 0.05 38 1009.2
20260507174508 63 328 0.9 6.1 0.00 0.22 0.05 36 1009.4
20260507173009 62 231 1.7 4.3 0.00 0.22 0.05 1009.6
20260507171506 62 12 3.5 6.1 0.00 0.22 0.05 38 1010.0
20260507170013 63 239 0.9 3.5 0.00 0.23 0.05 40 1010.3
20260507164522 62 191 0.9 4.3 0.00 0.24 0.05 45 1010.5
20260507163003 61 19 2.6 7.0 0.00 0.26 0.05 42 1010.7
20260507161503 62 9 0.9 5.2 0.00 0.26 0.05 44 1010.7
20260507160007 60 15 0.9 8.7 0.00 0.27 0.05 45 1010.9
20260507154511 59 192 1.7 6.1 0.00 0.28 0.05 45 1011.0
20260507153015 60 221 0.9 5.2 0.00 0.30 0.05 46 1011.4
20260507151504 59 185 0.9 4.3 0.00 0.32 0.05 47 1011.6
20260507150004 58 9 1.7 3.5 0.00 0.36 0.05 49 1011.6
20260507144508 58 338 2.6 4.3 0.00 0.38 0.05 49 1011.9
20260507143020 57 9 0.9 2.6 0.00 0.40 0.05 52 1012.2
20260507141521 57 217 0.9 3.5 0.00 0.42 0.05 61 1012.4
20260507140004 56 9 1.7 7.0 0.00 0.43 0.05 58 1012.4
20260507134507 54 352 0.9 4.3 0.00 0.43 0.05 56 1012.6
20260507133011 54 19 1.7 5.2 0.00 0.44 0.05 59 1012.6
20260507131519 53 202 0.0 6.1 0.00 0.45 0.05 66 1012.4
20260507130027 52 45 0.0 4.3 0.00 0.46 0.05 66 1012.3
20260507124509 52 350 0.9 2.6 0.00 0.46 0.05 67 1012.4
20260507123008 51 20 1.7 6.1 0.00 0.47 0.05 69 1012.4
20260507121516 51 316 1.7 4.3 0.00 0.47 0.05 68 1012.4
20260507120019 51 13 0.9 2.6 0.00 0.47 0.05 73 1012.2
20260507114537 50 277 0.0 1.7 0.00 0.47 0.05 74 1012.2
20260507113023 50 250 0.0 1.7 0.00 0.47 0.05 76 1012.3
20260507111510 49 323 0.0 1.7 0.00 0.47 0.05 80 1012.1
20260507110017 49 195 0.0 1.7 0.00 0.47 0.05 80 1012.0
20260507104532 49 195 0.0 0.0 0.00 0.47 0.05 85 1011.6
20260507103027 49 195 0.0 1.7 0.00 0.47 0.05 83 1011.2
20260507101515 49 195 0.0 1.7 0.00 0.47 0.05 85 1011.1